Time,TemperatureF,DewpointF,PressureIn,WindDirection,WindDirectionDegrees,WindSpeedMPH,WindSpeedGustMPH,Humidity,HourlyPrecipIn,Conditions,Clouds,dailyrainin,SoftwareType,DateUTC
2013-04-12 00:02:00,46.8,38.8,28.35,North,0,1.0,1.0,74,0.00,,,0.00,meteohub,2013-04-12 05:02:00,
2013-04-12 00:07:00,46.8,38.8,28.35,NE,45,0.0,1.0,74,0.00,,,0.00,meteohub,2013-04-12 05:07:00,
2013-04-12 00:12:00,46.9,38.7,28.35,NE,45,0.0,1.0,73,0.00,,,0.00,meteohub,2013-04-12 05:12:00,
2013-04-12 00:17:00,47.3,38.7,28.35,NE,45,1.0,1.0,72,0.00,,,0.00,meteohub,2013-04-12 05:17:00,
2013-04-12 00:22:00,47.3,38.7,28.35,North,0,1.0,1.0,72,0.00,,,0.00,meteohub,2013-04-12 05:22:00,
2013-04-12 00:27:00,46.9,38.3,28.35,North,0,1.0,1.0,72,0.00,,,0.00,meteohub,2013-04-12 05:27:00,
2013-04-12 00:32:00,47.3,38.3,28.36,North,0,1.0,1.0,71,0.00,,,0.00,meteohub,2013-04-12 05:32:00,
2013-04-12 00:37:00,47.3,38.3,28.36,North,0,0.0,1.0,71,0.00,,,0.00,meteohub,2013-04-12 05:37:00,
2013-04-12 00:42:00,46.9,38.1,28.36,North,0,0.0,1.0,71,0.00,,,0.00,meteohub,2013-04-12 05:42:00,
2013-04-12 00:47:00,47.1,38.1,28.36,NE,45,0.0,1.0,71,0.00,,,0.00,meteohub,2013-04-12 05:47:00,
2013-04-12 00:52:00,47.1,38.1,28.36,North,0,0.0,0.0,71,0.00,,,0.00,meteohub,2013-04-12 05:52:00,
2013-04-12 00:57:00,47.1,38.1,28.37,North,0,0.0,0.0,71,0.00,,,0.00,meteohub,2013-04-12 05:57:00,
2013-04-12 01:02:00,46.9,38.1,28.36,North,0,0.0,0.0,71,0.00,,,0.00,meteohub,2013-04-12 06:02:00,
2013-04-12 01:07:00,46.8,38.3,28.37,NE,45,0.0,0.0,72,0.00,,,0.00,meteohub,2013-04-12 06:07:00,
2013-04-12 01:12:00,46.6,38.1,28.37,NE,45,0.0,0.0,72,0.00,,,0.00,meteohub,2013-04-12 06:12:00,
2013-04-12 01:17:00,46.0,37.9,28.37,NE,45,0.0,0.0,73,0.00,,,0.00,meteohub,2013-04-12 06:17:00,
2013-04-12 01:22:00,46.2,38.1,28.37,NE,45,0.0,0.0,73,0.00,,,0.00,meteohub,2013-04-12 06:22:00,
2013-04-12 01:27:00,46.8,38.3,28.37,NW,315,0.0,0.0,72,0.00,,,0.00,meteohub,2013-04-12 06:27:00,
2013-04-12 01:32:00,46.6,38.1,28.37,NW,315,0.0,1.0,72,0.00,,,0.00,meteohub,2013-04-12 06:32:00,
2013-04-12 01:37:00,45.9,37.8,28.38,NW,315,0.0,1.0,73,0.00,,,0.00,meteohub,2013-04-12 06:37:00,
2013-04-12 01:42:00,45.1,37.8,28.38,North,0,0.0,1.0,75,0.00,,,0.00,meteohub,2013-04-12 06:42:00,
2013-04-12 01:47:00,45.0,37.9,28.38,NW,315,1.0,0.0,76,0.00,,,0.00,meteohub,2013-04-12 06:47:00,
2013-04-12 01:52:00,44.1,37.9,28.38,NW,315,3.0,3.0,79,0.00,,,0.00,meteohub,2013-04-12 06:52:00,
2013-04-12 01:57:00,43.9,38.5,28.38,NW,315,3.0,4.0,81,0.00,,,0.00,meteohub,2013-04-12 06:57:00,
2013-04-12 02:02:00,43.3,38.3,28.38,NNW,338,4.0,4.0,82,0.00,,,0.00,meteohub,2013-04-12 07:02:00,
2013-04-12 02:07:00,43.0,38.5,28.39,NW,315,1.0,4.0,84,0.00,,,0.00,meteohub,2013-04-12 07:07:00,
2013-04-12 02:12:00,43.2,38.3,28.38,NW,315,2.0,4.0,83,0.00,,,0.00,meteohub,2013-04-12 07:12:00,
2013-04-12 02:17:00,43.5,38.5,28.39,NW,315,2.0,4.0,82,0.00,,,0.00,meteohub,2013-04-12 07:17:00,
2013-04-12 02:22:00,43.3,38.3,28.39,NW,315,4.0,4.0,82,0.00,,,0.00,meteohub,2013-04-12 07:22:00,
2013-04-12 02:27:00,43.3,38.5,28.39,North,0,1.0,4.0,83,0.00,,,0.00,meteohub,2013-04-12 07:27:00,
2013-04-12 02:32:00,43.3,38.5,28.39,NNW,338,1.0,4.0,83,0.00,,,0.00,meteohub,2013-04-12 07:32:00,
2013-04-12 02:37:00,44.1,38.3,28.39,North,0,1.0,4.0,80,0.00,,,0.00,meteohub,2013-04-12 07:37:00,
2013-04-12 02:42:00,44.6,38.1,28.39,North,0,1.0,2.0,78,0.00,,,0.00,meteohub,2013-04-12 07:42:00,
2013-04-12 02:47:00,45.1,37.9,28.39,North,0,1.0,1.0,76,0.00,,,0.00,meteohub,2013-04-12 07:47:00,
2013-04-12 02:52:00,45.9,38.1,28.39,North,0,4.0,4.0,74,0.00,,,0.00,meteohub,2013-04-12 07:52:00,
2013-04-12 02:57:00,46.2,38.1,28.39,North,0,1.0,4.0,73,0.00,,,0.00,meteohub,2013-04-12 07:57:00,
2013-04-12 03:02:00,46.6,38.1,28.39,NW,315,1.0,4.0,72,0.00,,,0.00,meteohub,2013-04-12 08:02:00,
2013-04-12 03:07:00,46.8,38.3,28.39,NE,45,1.0,4.0,72,0.00,,,0.00,meteohub,2013-04-12 08:07:00,
2013-04-12 03:12:00,46.6,38.1,28.40,North,0,0.0,1.0,72,0.00,,,0.00,meteohub,2013-04-12 08:12:00,
2013-04-12 03:17:00,46.0,37.9,28.39,North,0,1.0,1.0,73,0.00,,,0.00,meteohub,2013-04-12 08:17:00,
2013-04-12 03:22:00,45.9,38.1,28.39,North,0,1.0,1.0,74,0.00,,,0.00,meteohub,2013-04-12 08:22:00,
2013-04-12 03:27:00,45.5,38.1,28.40,North,0,1.0,1.0,75,0.00,,,0.00,meteohub,2013-04-12 08:27:00,
2013-04-12 03:32:00,45.5,38.3,28.40,NW,315,1.0,1.0,76,0.00,,,0.00,meteohub,2013-04-12 08:32:00,
2013-04-12 03:37:00,45.3,38.1,28.40,NW,315,1.0,1.0,76,0.00,,,0.00,meteohub,2013-04-12 08:37:00,
2013-04-12 03:42:00,45.0,38.1,28.40,NW,315,2.0,2.0,77,0.00,,,0.00,meteohub,2013-04-12 08:42:00,
2013-04-12 03:47:00,44.4,38.3,28.40,West,270,2.0,2.0,79,0.00,,,0.00,meteohub,2013-04-12 08:47:00,
2013-04-12 03:53:00,43.9,37.8,28.39,NW,315,0.0,2.0,79,0.00,,,0.00,meteohub,2013-04-12 08:53:00,
2013-04-12 03:58:00,43.3,37.2,28.40,NW,315,0.0,2.0,79,0.00,,,0.00,meteohub,2013-04-12 08:58:00,
2013-04-12 04:03:00,43.0,37.2,28.40,West,270,0.0,2.0,80,0.00,,,0.00,meteohub,2013-04-12 09:03:00,
2013-04-12 04:08:00,42.4,37.0,28.40,NW,315,0.0,2.0,81,0.00,,,0.00,meteohub,2013-04-12 09:08:00,
2013-04-12 04:13:00,42.3,36.9,28.40,NW,315,0.0,1.0,81,0.00,,,0.00,meteohub,2013-04-12 09:13:00,
2013-04-12 04:18:00,42.1,37.0,28.40,SE,135,0.0,1.0,82,0.00,,,0.00,meteohub,2013-04-12 09:18:00,
2013-04-12 04:23:00,42.1,37.0,28.40,East,90,0.0,1.0,82,0.00,,,0.00,meteohub,2013-04-12 09:23:00,
2013-04-12 04:28:00,42.1,37.2,28.40,North,0,0.0,0.0,83,0.00,,,0.00,meteohub,2013-04-12 09:28:00,
2013-04-12 04:33:00,42.3,37.8,28.40,North,0,0.0,1.0,84,0.00,,,0.00,meteohub,2013-04-12 09:33:00,
2013-04-12 04:38:00,42.6,38.1,28.40,North,0,1.0,1.0,84,0.00,,,0.00,meteohub,2013-04-12 09:38:00,
2013-04-12 04:43:00,42.8,37.9,28.40,NW,315,1.0,1.0,83,0.00,,,0.00,meteohub,2013-04-12 09:43:00,
2013-04-12 04:48:00,42.8,37.9,28.40,North,0,0.0,1.0,83,0.00,,,0.00,meteohub,2013-04-12 09:48:00,
2013-04-12 04:53:00,42.8,37.8,28.40,NE,45,1.0,2.0,82,0.00,,,0.00,meteohub,2013-04-12 09:53:00,
2013-04-12 04:58:00,42.6,37.6,28.40,North,0,1.0,2.0,82,0.00,,,0.00,meteohub,2013-04-12 09:58:00,
2013-04-12 05:03:00,42.4,37.4,28.40,West,270,1.0,2.0,82,0.00,,,0.00,meteohub,2013-04-12 10:03:00,
2013-04-12 05:08:00,42.4,37.6,28.40,NW,315,1.0,1.0,83,0.00,,,0.00,meteohub,2013-04-12 10:08:00,
2013-04-12 05:13:00,42.4,37.4,28.41,NW,315,1.0,1.0,82,0.00,,,0.00,meteohub,2013-04-12 10:13:00,
2013-04-12 05:18:00,42.4,37.4,28.41,North,0,0.0,1.0,82,0.00,,,0.00,meteohub,2013-04-12 10:18:00,
2013-04-12 05:23:00,42.6,37.6,28.41,North,0,1.0,1.0,82,0.00,,,0.00,meteohub,2013-04-12 10:23:00,
2013-04-12 05:28:00,42.6,37.6,28.41,NE,45,0.0,1.0,82,0.00,,,0.00,meteohub,2013-04-12 10:28:00,
2013-04-12 05:33:00,42.6,37.2,28.41,North,0,0.0,1.0,81,0.00,,,0.00,meteohub,2013-04-12 10:33:00,
2013-04-12 05:38:00,42.6,37.2,28.41,NE,45,0.0,1.0,81,0.00,,,0.00,meteohub,2013-04-12 10:38:00,
2013-04-12 05:43:00,42.8,37.8,28.40,East,90,0.0,1.0,82,0.00,,,0.00,meteohub,2013-04-12 10:43:00,
2013-04-12 05:48:00,43.0,38.1,28.40,East,90,0.0,0.0,83,0.00,,,0.00,meteohub,2013-04-12 10:48:00,
2013-04-12 05:53:00,43.3,37.9,28.40,East,90,1.0,0.0,81,0.00,,,0.00,meteohub,2013-04-12 10:53:00,
2013-04-12 05:58:00,43.3,37.6,28.40,NE,45,1.0,1.0,80,0.00,,,0.00,meteohub,2013-04-12 10:58:00,
2013-04-12 06:03:00,43.5,37.8,28.41,North,0,2.0,2.0,80,0.00,,,0.00,meteohub,2013-04-12 11:03:00,
2013-04-12 06:08:00,43.3,37.6,28.41,North,0,0.0,2.0,80,0.00,,,0.00,meteohub,2013-04-12 11:08:00,
2013-04-12 06:13:00,43.3,37.6,28.41,West,270,0.0,2.0,80,0.00,,,0.00,meteohub,2013-04-12 11:13:00,
2013-04-12 06:18:00,42.3,36.5,28.41,NW,315,1.0,2.0,80,0.00,,,0.00,meteohub,2013-04-12 11:18:00,
2013-04-12 06:24:00,41.4,36.3,28.41,West,270,0.0,4.0,82,0.00,,,0.00,meteohub,2013-04-12 11:24:00,
2013-04-12 06:29:00,40.8,36.1,28.42,NW,315,0.0,4.0,83,0.00,,,0.00,meteohub,2013-04-12 11:29:00,
2013-04-12 06:34:00,40.5,36.0,28.42,NW,315,0.0,4.0,84,0.00,,,0.00,meteohub,2013-04-12 11:34:00,
2013-04-12 06:39:00,40.3,36.1,28.42,NW,315,0.0,2.0,85,0.00,,,0.00,meteohub,2013-04-12 11:39:00,
2013-04-12 06:44:00,40.3,36.1,28.42,NW,315,0.0,0.0,85,0.00,,,0.00,meteohub,2013-04-12 11:44:00,
2013-04-12 06:49:00,40.6,36.9,28.42,South,180,0.0,0.0,86,0.00,,,0.00,meteohub,2013-04-12 11:49:00,
2013-04-12 06:54:00,40.8,37.0,28.42,South,180,0.0,0.0,86,0.00,,,0.00,meteohub,2013-04-12 11:54:00,
2013-04-12 06:59:00,41.0,37.4,28.43,South,180,1.0,0.0,87,0.00,,,0.00,meteohub,2013-04-12 11:59:00,
2013-04-12 07:04:00,41.2,37.4,28.43,SW,225,1.0,2.0,86,0.00,,,0.00,meteohub,2013-04-12 12:04:00,
2013-04-12 07:09:00,41.5,37.6,28.43,East,90,0.0,2.0,86,0.00,,,0.00,meteohub,2013-04-12 12:09:00,
2013-04-12 07:14:00,41.9,37.9,28.43,NE,45,1.0,2.0,86,0.00,,,0.00,meteohub,2013-04-12 12:14:00,
2013-04-12 07:19:00,42.8,37.9,28.43,NE,45,0.0,2.0,83,0.00,,,0.00,meteohub,2013-04-12 12:19:00,
2013-04-12 07:24:00,43.7,37.6,28.43,NE,45,1.0,1.0,79,0.00,,,0.00,meteohub,2013-04-12 12:24:00,
2013-04-12 07:29:00,44.6,37.6,28.43,East,90,1.0,1.0,76,0.00,,,0.00,meteohub,2013-04-12 12:29:00,
2013-04-12 07:34:00,45.0,37.6,28.43,NE,45,0.0,1.0,75,0.00,,,0.00,meteohub,2013-04-12 12:34:00,
2013-04-12 07:39:00,45.3,37.6,28.44,North,0,2.0,2.0,74,0.00,,,0.00,meteohub,2013-04-12 12:39:00,
2013-04-12 07:44:00,45.9,37.4,28.45,NE,45,2.0,2.0,72,0.00,,,0.00,meteohub,2013-04-12 12:44:00,
2013-04-12 07:49:00,46.2,37.0,28.45,North,0,2.0,2.0,70,0.00,,,0.00,meteohub,2013-04-12 12:49:00,
2013-04-12 07:54:00,46.2,37.0,28.45,NE,45,1.0,2.0,70,0.00,,,0.00,meteohub,2013-04-12 12:54:00,
2013-04-12 07:59:00,46.2,37.4,28.46,North,0,11.0,11.0,71,0.00,,,0.00,meteohub,2013-04-12 12:59:00,
2013-04-12 08:04:00,46.0,37.2,28.46,NE,45,10.0,11.0,71,0.00,,,0.00,meteohub,2013-04-12 13:04:00,
2013-04-12 08:09:00,45.9,37.0,28.46,North,0,15.0,15.0,71,0.00,,,0.00,meteohub,2013-04-12 13:09:00,
2013-04-12 08:14:00,45.9,37.0,28.46,NE,45,15.0,15.0,71,0.00,,,0.00,meteohub,2013-04-12 13:14:00,
2013-04-12 08:19:00,45.7,37.2,28.46,NE,45,11.0,15.0,72,0.00,,,0.00,meteohub,2013-04-12 13:19:00,
2013-04-12 08:24:00,45.3,37.2,28.46,NE,45,12.0,15.0,73,0.00,,,0.00,meteohub,2013-04-12 13:24:00,
2013-04-12 08:29:00,45.1,37.4,28.46,NE,45,13.0,15.0,74,0.00,,,0.00,meteohub,2013-04-12 13:29:00,
2013-04-12 08:34:00,45.3,37.9,28.46,NE,45,9.0,14.0,75,0.00,,,0.00,meteohub,2013-04-12 13:34:00,
2013-04-12 08:39:00,45.3,37.9,28.46,North,0,9.0,14.0,75,0.00,,,0.00,meteohub,2013-04-12 13:39:00,
2013-04-12 08:44:00,45.5,38.3,28.47,SE,135,7.0,14.0,76,0.00,,,0.00,meteohub,2013-04-12 13:44:00,
2013-04-12 08:49:00,45.3,37.9,28.48,North,0,4.0,14.0,75,0.00,,,0.00,meteohub,2013-04-12 13:49:00,
2013-04-12 08:54:00,45.5,38.1,28.48,NE,45,6.0,14.0,75,0.00,,,0.00,meteohub,2013-04-12 13:54:00,
2013-04-12 08:59:00,45.7,37.9,28.48,NE,45,8.0,14.0,74,0.00,,,0.00,meteohub,2013-04-12 13:59:00,
2013-04-12 09:04:00,46.0,38.5,28.48,North,0,10.0,14.0,75,0.00,,,0.00,meteohub,2013-04-12 14:04:00,
2013-04-12 09:09:00,45.9,38.1,28.49,North,0,2.0,13.0,74,0.00,,,0.00,meteohub,2013-04-12 14:09:00,
2013-04-12 09:14:00,46.4,38.3,28.48,NE,45,2.0,10.0,73,0.00,,,0.00,meteohub,2013-04-12 14:14:00,
2013-04-12 09:19:00,46.2,37.8,28.48,NE,45,11.0,11.0,72,0.00,,,0.00,meteohub,2013-04-12 14:19:00,
2013-04-12 09:24:00,45.9,37.8,28.48,NE,45,8.0,13.0,73,0.00,,,0.00,meteohub,2013-04-12 14:24:00,
2013-04-12 09:29:00,46.0,37.6,28.48,NE,45,12.0,15.0,72,0.00,,,0.00,meteohub,2013-04-12 14:29:00,
2013-04-12 10:15:00,50.5,38.8,28.50,NE,45,6.0,6.0,64,0.00,,,0.00,meteohub,2013-04-12 15:15:00,
2013-04-12 10:26:00,51.8,37.0,28.51,North,0,11.0,11.0,57,0.00,,,0.00,meteohub,2013-04-12 15:26:00,
2013-04-12 10:45:00,52.7,37.9,28.51,NE,45,8.0,11.0,57,0.00,,,0.00,meteohub,2013-04-12 15:45:00,
2013-04-12 10:50:00,53.2,38.5,28.51,North,0,8.0,11.0,57,0.00,,,0.00,meteohub,2013-04-12 15:50:00,
2013-04-12 12:29:00,58.6,36.9,28.51,NE,45,8.0,14.0,44,0.00,,,0.00,meteohub,2013-04-12 17:29:00,
2013-04-12 12:34:00,58.8,35.8,28.51,East,90,10.0,15.0,42,0.00,,,0.00,meteohub,2013-04-12 17:34:00,
2013-04-12 12:39:00,58.6,37.4,28.51,NE,45,11.0,15.0,45,0.00,,,0.00,meteohub,2013-04-12 17:39:00,
2013-04-12 12:44:00,59.5,37.6,28.50,NE,45,11.0,15.0,44,0.00,,,0.00,meteohub,2013-04-12 17:44:00,
2013-04-12 12:49:00,59.7,37.2,28.50,East,90,10.0,15.0,43,0.00,,,0.00,meteohub,2013-04-12 17:49:00,
2013-04-12 12:54:00,60.1,36.9,28.50,NE,45,11.0,15.0,42,0.00,,,0.00,meteohub,2013-04-12 17:54:00,
2013-04-12 13:00:00,60.6,37.4,28.50,NE,45,10.0,15.0,42,0.00,,,0.00,meteohub,2013-04-12 18:00:00,
2013-04-12 13:05:00,60.8,36.9,28.49,NE,45,10.0,15.0,41,0.00,,,0.00,meteohub,2013-04-12 18:05:00,
2013-04-12 13:10:00,61.2,37.2,28.49,NE,45,10.0,12.0,41,0.00,,,0.00,meteohub,2013-04-12 18:10:00,
2013-04-12 13:15:00,61.3,37.4,28.50,North,0,10.0,12.0,41,0.00,,,0.00,meteohub,2013-04-12 18:15:00,
2013-04-12 13:22:00,61.5,37.0,28.49,North,0,9.0,13.0,40,0.00,,,0.00,meteohub,2013-04-12 18:22:00,
2013-04-12 13:27:00,62.1,39.9,28.48,East,90,1.0,13.0,44,0.00,,,0.00,meteohub,2013-04-12 18:27:00,
2013-04-12 14:26:00,63.5,39.9,28.47,NE,45,10.0,15.0,42,0.00,,,0.00,meteohub,2013-04-12 19:26:00,
2013-04-12 14:31:00,63.7,41.9,28.46,NE,45,5.0,12.0,45,0.00,,,0.00,meteohub,2013-04-12 19:31:00,
2013-04-12 14:37:00,64.2,42.4,28.46,East,90,11.0,12.0,45,0.00,,,0.00,meteohub,2013-04-12 19:37:00,
2013-04-12 14:42:00,64.4,42.1,28.46,East,90,10.0,12.0,44,0.00,,,0.00,meteohub,2013-04-12 19:42:00,
2013-04-12 14:47:00,64.8,43.0,28.45,North,0,10.0,12.0,45,0.00,,,0.00,meteohub,2013-04-12 19:47:00,
2013-04-12 14:52:00,64.4,43.2,28.45,NE,45,5.0,14.0,46,0.00,,,0.00,meteohub,2013-04-12 19:52:00,
2013-04-12 14:57:00,64.9,42.4,28.45,NE,45,11.0,14.0,44,0.00,,,0.00,meteohub,2013-04-12 19:57:00,
2013-04-12 15:02:00,65.3,44.1,28.45,East,90,7.0,14.0,46,0.00,,,0.00,meteohub,2013-04-12 20:02:00,
2013-04-12 15:07:00,66.0,44.1,28.45,East,90,10.0,11.0,45,0.00,,,0.00,meteohub,2013-04-12 20:07:00,
2013-04-12 15:12:00,66.0,44.1,28.44,East,90,5.0,11.0,45,0.00,,,0.00,meteohub,2013-04-12 20:12:00,
2013-04-12 15:17:00,66.2,43.0,28.44,East,90,6.0,10.0,43,0.00,,,0.00,meteohub,2013-04-12 20:17:00,
2013-04-12 15:22:00,66.7,44.8,28.43,East,90,6.0,11.0,45,0.00,,,0.00,meteohub,2013-04-12 20:22:00,
2013-04-12 15:27:00,66.0,44.1,28.43,North,0,7.0,11.0,45,0.00,,,0.00,meteohub,2013-04-12 20:27:00,
2013-04-12 15:32:00,66.4,45.0,28.43,East,90,7.0,11.0,46,0.00,,,0.00,meteohub,2013-04-12 20:32:00,
2013-04-12 15:37:00,67.1,44.4,28.42,NE,45,8.0,11.0,44,0.00,,,0.00,meteohub,2013-04-12 20:37:00,
2013-04-12 15:42:00,67.5,44.2,28.42,East,90,9.0,11.0,43,0.00,,,0.00,meteohub,2013-04-12 20:42:00,
2013-04-12 15:47:00,66.9,43.2,28.42,East,90,7.0,11.0,42,0.00,,,0.00,meteohub,2013-04-12 20:47:00,
2013-04-12 15:52:00,67.1,43.9,28.41,East,90,8.0,11.0,43,0.00,,,0.00,meteohub,2013-04-12 20:52:00,
2013-04-12 15:57:00,67.3,42.1,28.41,East,90,8.0,11.0,40,0.00,,,0.00,meteohub,2013-04-12 20:57:00,
2013-04-12 16:02:00,67.5,41.7,28.41,East,90,11.0,11.0,39,0.00,,,0.00,meteohub,2013-04-12 21:02:00,
2013-04-12 16:08:00,67.5,42.3,28.41,East,90,10.0,11.0,40,0.00,,,0.00,meteohub,2013-04-12 21:08:00,
2013-04-12 16:13:00,67.6,41.7,28.40,SSE,158,8.0,11.0,39,0.00,,,0.00,meteohub,2013-04-12 21:13:00,
2013-04-12 16:18:00,68.0,42.1,28.40,East,90,11.0,11.0,39,0.00,,,0.00,meteohub,2013-04-12 21:18:00,
2013-04-12 16:23:00,68.0,40.8,28.40,East,90,10.0,11.0,37,0.00,,,0.00,meteohub,2013-04-12 21:23:00,
2013-04-12 16:28:00,68.0,40.8,28.40,SE,135,11.0,11.0,37,0.00,,,0.00,meteohub,2013-04-12 21:28:00,
2013-04-12 16:33:00,68.0,40.1,28.40,NE,45,8.0,16.0,36,0.00,,,0.00,meteohub,2013-04-12 21:33:00,
2013-04-12 16:38:00,68.2,41.5,28.40,SE,135,15.0,16.0,38,0.00,,,0.00,meteohub,2013-04-12 21:38:00,
2013-04-12 16:43:00,68.5,40.5,28.39,East,90,11.0,16.0,36,0.00,,,0.00,meteohub,2013-04-12 21:43:00,
2013-04-12 16:48:00,68.4,40.3,28.40,East,90,10.0,15.0,36,0.00,,,0.00,meteohub,2013-04-12 21:48:00,
2013-04-12 16:53:00,68.7,41.4,28.40,SE,135,9.0,15.0,37,0.00,,,0.00,meteohub,2013-04-12 21:53:00,
2013-04-12 16:58:00,68.4,39.6,28.40,East,90,10.0,13.0,35,0.00,,,0.00,meteohub,2013-04-12 21:58:00,
2013-04-12 17:03:00,68.4,40.3,28.39,East,90,11.0,15.0,36,0.00,,,0.00,meteohub,2013-04-12 22:03:00,
2013-04-12 17:08:00,68.4,39.6,28.39,East,90,14.0,15.0,35,0.00,,,0.00,meteohub,2013-04-12 22:08:00,
2013-04-12 17:13:00,68.0,40.1,28.39,East,90,9.0,15.0,36,0.00,,,0.00,meteohub,2013-04-12 22:13:00,
2013-04-12 17:18:00,67.6,40.5,28.39,East,90,11.0,15.0,37,0.00,,,0.00,meteohub,2013-04-12 22:18:00,
2013-04-12 17:23:00,67.3,40.1,28.39,East,90,12.0,16.0,37,0.00,,,0.00,meteohub,2013-04-12 22:23:00,
2013-04-12 17:28:00,67.5,41.7,28.39,East,90,7.0,16.0,39,0.00,,,0.00,meteohub,2013-04-12 22:28:00,
2013-04-12 17:33:00,68.0,41.4,28.40,East,90,9.0,16.0,38,0.00,,,0.00,meteohub,2013-04-12 22:33:00,
2013-04-12 17:38:00,68.2,42.3,28.40,NE,45,9.0,13.0,39,0.00,,,0.00,meteohub,2013-04-12 22:38:00,
2013-04-12 17:43:00,68.4,40.3,28.40,East,90,11.0,13.0,36,0.00,,,0.00,meteohub,2013-04-12 22:43:00,
2013-04-12 17:48:00,68.2,41.0,28.40,East,90,12.0,12.0,37,0.00,,,0.00,meteohub,2013-04-12 22:48:00,
2013-04-12 17:53:00,68.4,42.4,28.40,East,90,4.0,12.0,39,0.00,,,0.00,meteohub,2013-04-12 22:53:00,
2013-04-12 17:58:00,68.4,41.0,28.40,East,90,5.0,13.0,37,0.00,,,0.00,meteohub,2013-04-12 22:58:00,
2013-04-12 18:03:00,68.4,41.0,28.40,ENE,68,6.0,13.0,37,0.00,,,0.00,meteohub,2013-04-12 23:03:00,
2013-04-12 18:08:00,68.2,41.5,28.40,East,90,8.0,13.0,38,0.00,,,0.00,meteohub,2013-04-12 23:08:00,
2013-04-12 18:13:00,67.8,41.9,28.40,East,90,6.0,12.0,39,0.00,,,0.00,meteohub,2013-04-12 23:13:00,
2013-04-12 18:18:00,67.6,41.2,28.40,East,90,8.0,12.0,38,0.00,,,0.00,meteohub,2013-04-12 23:18:00,
2013-04-12 18:23:00,67.5,41.7,28.40,East,90,7.0,11.0,39,0.00,,,0.00,meteohub,2013-04-12 23:23:00,
2013-04-12 18:28:00,67.5,41.0,28.40,SE,135,8.0,11.0,38,0.00,,,0.00,meteohub,2013-04-12 23:28:00,
2013-04-12 18:33:00,66.4,41.4,28.39,East,90,6.0,11.0,40,0.00,,,0.00,meteohub,2013-04-12 23:33:00,
2013-04-12 18:38:00,66.0,41.0,28.40,East,90,4.0,9.0,40,0.00,,,0.00,meteohub,2013-04-12 23:38:00,
2013-04-12 18:43:00,65.7,41.9,28.40,East,90,8.0,9.0,42,0.00,,,0.00,meteohub,2013-04-12 23:43:00,
2013-04-12 18:49:00,65.7,41.9,28.39,East,90,8.0,10.0,42,0.00,,,0.00,meteohub,2013-04-12 23:49:00,
2013-04-12 18:54:00,65.1,41.5,28.40,East,90,8.0,10.0,42,0.00,,,0.00,meteohub,2013-04-12 23:54:00,
2013-04-12 18:59:00,65.1,42.1,28.39,East,90,9.0,11.0,43,0.00,,,0.00,meteohub,2013-04-12 23:59:00,
2013-04-12 19:04:00,65.1,42.1,28.39,East,90,8.0,11.0,43,0.00,,,0.00,meteohub,2013-04-13 00:04:00,
2013-04-12 19:09:00,65.1,42.6,28.39,NE,45,8.0,11.0,44,0.00,,,0.00,meteohub,2013-04-13 00:09:00,
2013-04-12 19:14:00,64.4,42.6,28.38,East,90,7.0,10.0,45,0.00,,,0.00,meteohub,2013-04-13 00:14:00,
2013-04-12 19:19:00,64.4,43.2,28.39,NE,45,6.0,10.0,46,0.00,,,0.00,meteohub,2013-04-13 00:19:00,
2013-04-12 19:24:00,64.2,44.1,28.38,East,90,4.0,10.0,48,0.00,,,0.00,meteohub,2013-04-13 00:24:00,
2013-04-12 19:29:00,64.4,43.7,28.38,East,90,6.0,11.0,47,0.00,,,0.00,meteohub,2013-04-13 00:29:00,
2013-04-12 19:34:00,64.0,43.3,28.38,East,90,8.0,11.0,47,0.00,,,0.00,meteohub,2013-04-13 00:34:00,
2013-04-12 19:39:00,63.7,44.2,28.38,East,90,4.0,9.0,49,0.00,,,0.00,meteohub,2013-04-13 00:39:00,
2013-04-12 19:44:00,63.1,43.7,28.39,NE,45,7.0,9.0,49,0.00,,,0.00,meteohub,2013-04-13 00:44:00,
2013-04-12 19:49:00,63.1,43.2,28.38,East,90,5.0,8.0,48,0.00,,,0.00,meteohub,2013-04-13 00:49:00,
2013-04-12 19:54:00,63.1,43.2,28.38,East,90,6.0,8.0,48,0.00,,,0.00,meteohub,2013-04-13 00:54:00,
2013-04-12 19:59:00,63.0,43.0,28.38,East,90,8.0,8.0,48,0.00,,,0.00,meteohub,2013-04-13 00:59:00,
2013-04-12 20:04:00,62.6,43.2,28.38,East,90,6.0,8.0,49,0.00,,,0.00,meteohub,2013-04-13 01:04:00,
2013-04-12 20:09:00,62.2,43.9,28.38,East,90,7.0,8.0,51,0.00,,,0.00,meteohub,2013-04-13 01:09:00,
2013-04-12 20:14:00,62.1,43.7,28.38,North,0,7.0,8.0,51,0.00,,,0.00,meteohub,2013-04-13 01:14:00,
2013-04-12 20:19:00,62.1,43.7,28.38,East,90,6.0,8.0,51,0.00,,,0.00,meteohub,2013-04-13 01:19:00,
2013-04-12 20:24:00,61.9,43.0,28.38,East,90,6.0,8.0,50,0.00,,,0.00,meteohub,2013-04-13 01:24:00,
2013-04-12 20:29:00,61.9,43.0,28.38,East,90,6.0,8.0,50,0.00,,,0.00,meteohub,2013-04-13 01:29:00,
2013-04-12 20:34:00,61.5,43.2,28.38,NE,45,10.0,11.0,51,0.00,,,0.00,meteohub,2013-04-13 01:34:00,
2013-04-12 20:39:00,61.2,43.3,28.38,East,90,8.0,11.0,52,0.00,,,0.00,meteohub,2013-04-13 01:39:00,
2013-04-12 20:44:00,61.2,43.3,28.38,East,90,8.0,11.0,52,0.00,,,0.00,meteohub,2013-04-13 01:44:00,
2013-04-12 20:49:00,61.0,43.2,28.38,East,90,8.0,10.0,52,0.00,,,0.00,meteohub,2013-04-13 01:49:00,
2013-04-12 20:54:00,60.6,44.4,28.39,East,90,6.0,9.0,55,0.00,,,0.00,meteohub,2013-04-13 01:54:00,
2013-04-12 20:59:00,60.1,44.4,28.39,NE,45,8.0,9.0,56,0.00,,,0.00,meteohub,2013-04-13 01:59:00,
2013-04-12 21:04:00,59.7,45.3,28.38,East,90,5.0,9.0,59,0.00,,,0.00,meteohub,2013-04-13 02:04:00,
2013-04-12 21:09:00,59.0,46.0,28.39,NE,45,5.0,9.0,62,0.00,,,0.00,meteohub,2013-04-13 02:09:00,
2013-04-12 21:14:00,58.5,45.9,28.39,NE,45,6.0,9.0,63,0.00,,,0.00,meteohub,2013-04-13 02:14:00,
2013-04-12 21:19:00,58.3,46.2,28.39,East,90,4.0,8.0,64,0.00,,,0.00,meteohub,2013-04-13 02:19:00,
2013-04-12 21:24:00,58.1,45.5,28.39,NE,45,11.0,11.0,63,0.00,,,0.00,meteohub,2013-04-13 02:24:00,
2013-04-12 21:29:00,57.6,45.9,28.39,NE,45,8.0,11.0,65,0.00,,,0.00,meteohub,2013-04-13 02:29:00,
2013-04-12 21:34:00,57.2,45.9,28.39,NE,45,9.0,11.0,66,0.00,,,0.00,meteohub,2013-04-13 02:34:00,
2013-04-12 21:39:00,56.7,45.9,28.39,NE,45,8.0,11.0,67,0.00,,,0.00,meteohub,2013-04-13 02:39:00,
2013-04-12 21:44:00,56.3,46.2,28.39,NE,45,11.0,11.0,69,0.00,,,0.00,meteohub,2013-04-13 02:44:00,
2013-04-12 21:49:00,55.6,46.0,28.40,NE,45,7.0,11.0,70,0.00,,,0.00,meteohub,2013-04-13 02:49:00,
2013-04-12 21:54:00,55.4,46.2,28.40,North,0,9.0,11.0,71,0.00,,,0.00,meteohub,2013-04-13 02:54:00,
2013-04-12 21:59:00,55.4,46.2,28.40,East,90,8.0,11.0,71,0.00,,,0.00,meteohub,2013-04-13 02:59:00,
2013-04-12 22:04:00,55.0,45.9,28.40,NE,45,9.0,11.0,71,0.00,,,0.00,meteohub,2013-04-13 03:04:00,
2013-04-12 22:09:00,54.7,45.5,28.40,NE,45,9.0,12.0,71,0.00,,,0.00,meteohub,2013-04-13 03:09:00,
2013-04-12 22:14:00,54.9,45.3,28.40,NE,45,11.0,12.0,70,0.00,,,0.00,meteohub,2013-04-13 03:14:00,
2013-04-12 22:19:00,54.9,45.3,28.40,ENE,68,8.0,12.0,70,0.00,,,0.00,meteohub,2013-04-13 03:19:00,
2013-04-12 22:24:00,54.7,45.1,28.40,NE,45,11.0,11.0,70,0.00,,,0.00,meteohub,2013-04-13 03:24:00,
2013-04-12 22:29:00,54.5,45.3,28.40,East,90,8.0,11.0,71,0.00,,,0.00,meteohub,2013-04-13 03:29:00,
2013-04-12 22:34:00,53.8,45.0,28.40,NE,45,11.0,14.0,72,0.00,,,0.00,meteohub,2013-04-13 03:34:00,
2013-04-12 22:39:00,53.8,45.0,28.40,NE,45,12.0,14.0,72,0.00,,,0.00,meteohub,2013-04-13 03:39:00,
2013-04-12 22:44:00,53.8,45.0,28.40,NE,45,11.0,15.0,72,0.00,,,0.00,meteohub,2013-04-13 03:44:00,
2013-04-12 22:49:00,53.4,44.6,28.41,NE,45,11.0,15.0,72,0.00,,,0.00,meteohub,2013-04-13 03:49:00,
2013-04-12 22:55:00,53.6,44.8,28.41,East,90,11.0,15.0,72,0.00,,,0.00,meteohub,2013-04-13 03:55:00,
2013-04-12 23:00:00,53.6,44.8,28.41,East,90,8.0,15.0,72,0.00,,,0.00,meteohub,2013-04-13 04:00:00,
2013-04-12 23:05:00,53.4,44.6,28.42,North,0,11.0,15.0,72,0.00,,,0.00,meteohub,2013-04-13 04:05:00,
2013-04-12 23:10:00,53.2,44.4,28.41,NE,45,8.0,12.0,72,0.00,,,0.00,meteohub,2013-04-13 04:10:00,
2013-04-12 23:15:00,53.2,44.4,28.42,East,90,11.0,11.0,72,0.00,,,0.00,meteohub,2013-04-13 04:15:00,
2013-04-12 23:20:00,53.1,44.6,28.42,East,90,10.0,11.0,73,0.00,,,0.00,meteohub,2013-04-13 04:20:00,
2013-04-12 23:25:00,53.1,44.6,28.42,NE,45,8.0,11.0,73,0.00,,,0.00,meteohub,2013-04-13 04:25:00,
2013-04-12 23:30:00,52.7,44.6,28.42,NE,45,8.0,11.0,74,0.00,,,0.00,meteohub,2013-04-13 04:30:00,
2013-04-12 23:35:00,52.7,44.6,28.42,North,0,7.0,11.0,74,0.00,,,0.00,meteohub,2013-04-13 04:35:00,
2013-04-12 23:40:00,52.9,44.4,28.43,NE,45,10.0,11.0,73,0.00,,,0.00,meteohub,2013-04-13 04:40:00,
2013-04-12 23:45:00,52.7,44.2,28.43,East,90,9.0,14.0,73,0.00,,,0.00,meteohub,2013-04-13 04:45:00,
2013-04-12 23:50:00,53.1,44.6,28.43,NE,45,10.0,14.0,73,0.00,,,0.00,meteohub,2013-04-13 04:50:00,
2013-04-12 23:55:00,52.7,44.2,28.43,East,90,13.0,14.0,73,0.00,,,0.00,meteohub,2013-04-13 04:55:00,